Weather History for Wilkerson Pass, CO

Change the Weather History Date:

Wednesday, May 7, 2014

  Actual Average (KAFF) Record (KAFF)
Temperature  
Mean Temperature 40 °F -  
Max Temperature 50 °F 62 °F 80 °F (2011)
Min Temperature 28 °F 35 °F 23 °F (1999)
Degree Days  
Heating Degree Days 25    
Moisture  
Dew Point 9 °F    
Average Humidity 34    
Maximum Humidity 64    
Minimum Humidity 17    
Precipitation  
Precipitation 0.00 in - - ()
Sea Level Pressure  
Sea Level Pressure 29.92 in    
Wind  
Wind Speed 7 mph (SSW)    
Max Wind Speed 14 mph    
Max Gust Speed 29 mph    
Visibility 10 miles    
Events Thunderstorm    
Averages and records for this station are not official NWS values.
T = Trace of Precipitation, MM = Missing Value Source: NWS Daily Summary

Daily Weather History Graph

Daily Weather History Graph

Search for Another Location

Airport:

Trip Planner

Search our weather history database for the weather conditions in past years. The results will help you decide how hot, cold, wet, or windy it might be!

Date:

Astronomy

May. 07, 2014 Rise Set
Actual Time 5:57 AM MDT 8:00 PM MDT
Civil Twilight 5:27 AM MDT 8:30 PM MDT
Nautical Twilight 4:51 AM MDT 9:06 PM MDT
Astronomical Twilight 4:12 AM MDT 9:45 PM MDT
Moon 1:11 PM MDT (5/7) 1:54 AM MDT (5/7)
Length of Visible Light 15h 02m
Length of Day
14h 03m
First Quarter, 56% of the Moon is Illuminated
May 7
First Quarter
May 14
Full
May 21
Last Quarter
May 28
New
Jun 5
First Quarter

Hourly Weather History & Observations

Time (MDT) Temp. Windchill Dew Point Humidity Pressure Visibility Wind Dir Wind Speed Gust Speed Precip Events Conditions
12:14 AM 35.6 °F 31.7 °F 5.0 °F 28% 29.96 in 10.0 mi South 4.6 mph - N/A   Clear
12:34 AM 35.6 °F 32.8 °F 3.2 °F 26% 29.96 in 10.0 mi South 3.5 mph - N/A   Clear
12:53 AM 35.6 °F 30.7 °F 5.0 °F 28% 29.95 in 10.0 mi South 5.8 mph - N/A   Clear
1:13 AM 33.8 °F 29.6 °F 5.0 °F 30% 29.95 in 10.0 mi SSW 4.6 mph - N/A   Clear
1:34 AM 33.8 °F 27.7 °F 5.0 °F 30% 29.95 in 10.0 mi SSW 6.9 mph - N/A   Clear
1:55 AM 33.8 °F 28.6 °F 5.0 °F 30% 29.94 in 10.0 mi SSW 5.8 mph - N/A   Clear
2:14 AM 32.0 °F 26.4 °F 5.0 °F 32% 29.95 in 10.0 mi South 5.8 mph - N/A   Clear
2:34 AM 32.0 °F 26.4 °F 5.0 °F 32% 29.94 in 10.0 mi SSW 5.8 mph - N/A   Clear
2:54 AM 32.0 °F 27.5 °F 5.0 °F 32% 29.93 in 10.0 mi South 4.6 mph - N/A   Clear
3:15 AM 33.8 °F 29.6 °F 6.8 °F 32% 29.93 in 10.0 mi South 4.6 mph - N/A   Clear
3:34 AM 32.0 °F 26.4 °F 8.6 °F 38% 29.93 in 10.0 mi South 5.8 mph - N/A   Clear
3:54 AM 32.0 °F 27.5 °F 6.8 °F 35% 29.94 in 10.0 mi South 4.6 mph - N/A   Clear
4:14 AM 32.0 °F 27.5 °F 6.8 °F 35% 29.94 in 10.0 mi South 4.6 mph - N/A   Clear
4:34 AM 32.0 °F 25.6 °F 8.6 °F 38% 29.94 in 10.0 mi South 6.9 mph - N/A   Clear
4:54 AM 32.0 °F 27.5 °F 8.6 °F 38% 29.94 in 10.0 mi SSW 4.6 mph - N/A   Clear
5:14 AM 32.0 °F 25.6 °F 8.6 °F 38% 29.94 in 10.0 mi SW 6.9 mph - N/A   Clear
5:34 AM 32.0 °F 24.8 °F 8.6 °F 38% 29.94 in 10.0 mi SSW 8.1 mph - N/A   Clear
6:14 AM 32.0 °F 26.4 °F 8.6 °F 38% 29.95 in 10.0 mi SSW 5.8 mph - N/A   Clear
6:34 AM 32.0 °F 26.4 °F 8.6 °F 38% 29.95 in 10.0 mi SSW 5.8 mph - N/A   Clear
6:54 AM 32.0 °F 25.6 °F 8.6 °F 38% 29.95 in 10.0 mi SSW 6.9 mph - N/A   Clear
7:14 AM 32.0 °F 23.0 °F 8.6 °F 38% 29.94 in 10.0 mi SSW 11.5 mph 19.6 mph N/A   Clear
7:34 AM 32.0 °F 23.6 °F 8.6 °F 38% 29.93 in 10.0 mi SSW 10.4 mph 23.0 mph N/A   Clear
7:54 AM 33.8 °F 26.4 °F 8.6 °F 35% 29.94 in 10.0 mi SSW 9.2 mph 19.6 mph N/A   Clear
8:14 AM 35.6 °F 28.0 °F 8.6 °F 33% 29.93 in 10.0 mi SSW 10.4 mph 21.9 mph N/A   Clear
8:34 AM 35.6 °F 28.0 °F 8.6 °F 33% 29.93 in 10.0 mi SSW 10.4 mph 24.2 mph N/A   Clear
8:54 AM 35.6 °F 27.1 °F 8.6 °F 33% 29.93 in 10.0 mi SSW 12.7 mph 21.9 mph N/A   Clear
9:13 AM 37.4 °F 29.3 °F 6.8 °F 28% 29.92 in 10.0 mi SSW 12.7 mph 23.0 mph N/A   Clear
9:34 AM 41.0 °F 34.3 °F 8.6 °F 26% 29.92 in 10.0 mi SSW 11.5 mph 24.2 mph N/A   Clear
9:53 AM 41.0 °F 34.3 °F 6.8 °F 24% 29.92 in 10.0 mi SSW 11.5 mph 24.2 mph N/A   Clear
10:14 AM 42.8 °F 37.5 °F 8.6 °F 25% 29.93 in 10.0 mi SW 9.2 mph 18.4 mph N/A   Clear
10:33 AM 42.8 °F 38.6 °F 8.6 °F 25% 29.94 in 10.0 mi SSW 6.9 mph - N/A   Clear
11:14 AM 44.6 °F 40.7 °F 6.8 °F 21% 29.93 in 10.0 mi SSW 6.9 mph - N/A   Clear
11:34 AM 46.4 °F 41.5 °F 6.8 °F 20% 29.92 in 10.0 mi SSW 10.4 mph 23.0 mph N/A   Clear
11:54 AM 46.4 °F 42.4 °F 5.0 °F 18% 29.93 in 10.0 mi SSW 8.1 mph 20.7 mph N/A   Scattered Clouds
12:14 PM 46.4 °F 41.1 °F 6.8 °F 20% 29.94 in 10.0 mi South 11.5 mph 19.6 mph N/A   Scattered Clouds
12:34 PM 42.8 °F 38.0 °F 6.8 °F 23% 29.93 in 10.0 mi SSW 8.1 mph 17.3 mph N/A   Overcast
12:54 PM 42.8 °F 39.3 °F 5.0 °F 21% 29.92 in 10.0 mi South 5.8 mph 23.0 mph N/A   Mostly Cloudy
1:14 PM 48.2 °F - 6.8 °F 19% 29.92 in 10.0 mi SSW 6.9 mph - N/A   Overcast
1:34 PM 50.0 °F - 8.6 °F 19% 29.91 in 10.0 mi South 9.2 mph 28.8 mph N/A   Mostly Cloudy
1:54 PM 46.4 °F 41.9 °F 8.6 °F 22% 29.91 in 10.0 mi SSW 9.2 mph 23.0 mph N/A   Mostly Cloudy
2:14 PM 50.0 °F - 6.8 °F 17% 29.90 in 10.0 mi SSW 8.1 mph 18.4 mph N/A   Mostly Cloudy
2:34 PM 44.6 °F 38.8 °F 8.6 °F 23% 29.90 in 10.0 mi South 11.5 mph 19.6 mph N/A   Overcast
2:54 PM 46.4 °F 41.5 °F 10.4 °F 23% 29.89 in 10.0 mi SSW 10.4 mph 20.7 mph N/A   Mostly Cloudy
3:14 PM 48.2 °F - 10.4 °F 22% 29.88 in 10.0 mi SSW 9.2 mph - N/A   Mostly Cloudy
3:34 PM 46.4 °F 41.1 °F 5.0 °F 18% 29.88 in 10.0 mi SSW 11.5 mph 27.6 mph N/A   Scattered Clouds
3:53 PM 44.6 °F 39.7 °F 5.0 °F 20% 29.87 in 10.0 mi South 9.2 mph 19.6 mph N/A   Mostly Cloudy
4:14 PM 44.6 °F 40.2 °F 3.2 °F 18% 29.86 in 10.0 mi SSW 8.1 mph 17.3 mph N/A   Scattered Clouds
4:34 PM 46.4 °F 41.9 °F 5.0 °F 18% 29.85 in 10.0 mi SSW 9.2 mph 17.3 mph N/A   Scattered Clouds
4:54 PM 42.8 °F 38.0 °F 5.0 °F 21% 29.86 in 10.0 mi SSW 8.1 mph - N/A   Mostly Cloudy
5:14 PM 41.0 °F 35.8 °F 3.2 °F 21% 29.87 in 10.0 mi SW 8.1 mph - N/A   Overcast
5:34 PM 37.4 °F 30.3 °F 8.6 °F 30% 29.88 in 10.0 mi SSW 10.4 mph 20.7 mph N/A   Overcast
5:54 PM 37.4 °F 29.8 °F 10.4 °F 33% 29.89 in 10.0 mi South 11.5 mph 24.2 mph N/A   Overcast
6:14 PM 35.6 °F 29.2 °F 10.4 °F 35% 29.90 in 10.0 mi SSW 8.1 mph - N/A   Overcast
6:33 PM 35.6 °F 29.2 °F 10.4 °F 35% 29.91 in 10.0 mi SSW 8.1 mph - N/A   Overcast
6:54 PM 33.8 °F 26.4 °F 14.0 °F 44% 29.91 in 10.0 mi SSW 9.2 mph - N/A   Overcast
7:14 PM 33.8 °F 27.0 °F 14.0 °F 44% 29.89 in 10.0 mi SW 8.1 mph - N/A   Overcast
7:33 PM 32.0 °F 25.6 °F 14.0 °F 48% 29.91 in 10.0 mi South 6.9 mph - N/A Thunderstorm Overcast
7:53 PM 32.0 °F 25.6 °F 15.8 °F 51% 29.89 in 7.0 mi West 6.9 mph 17.3 mph N/A   Overcast
8:13 PM 32.0 °F 23.0 °F 15.8 °F 51% 29.87 in 10.0 mi SW 11.5 mph 20.7 mph N/A   Scattered Clouds
8:33 PM 32.0 °F 23.0 °F 17.6 °F 55% 29.89 in 10.0 mi SW 11.5 mph 20.7 mph N/A   Clear
8:54 PM 32.0 °F 23.0 °F 17.6 °F 55% 29.89 in 10.0 mi SW 11.5 mph 18.4 mph N/A   Scattered Clouds
9:14 PM 30.2 °F 19.8 °F 14.0 °F 51% 29.89 in 10.0 mi SW 13.8 mph 19.6 mph N/A   Scattered Clouds
9:34 PM 30.2 °F 21.9 °F 15.8 °F 55% 29.91 in 10.0 mi SW 9.2 mph 16.1 mph N/A   Mostly Cloudy
9:54 PM 30.2 °F 22.6 °F 15.8 °F 55% 29.91 in 10.0 mi SW 8.1 mph - N/A Thunderstorm Overcast
10:14 PM 30.2 °F 23.4 °F 17.6 °F 60% 29.92 in 10.0 mi SW 6.9 mph - N/A   Overcast
10:34 PM 30.2 °F 24.3 °F 17.6 °F 60% 29.91 in 10.0 mi West 5.8 mph - N/A   Overcast
10:54 PM 30.2 °F 24.3 °F 15.8 °F 55% 29.91 in 10.0 mi WSW 5.8 mph - N/A   Overcast
11:14 PM 30.2 °F 24.3 °F 15.8 °F 55% 29.91 in 10.0 mi WSW 5.8 mph - N/A   Overcast
11:34 PM 30.2 °F 26.7 °F 17.6 °F 60% 29.91 in 10.0 mi WSW 3.5 mph - N/A   Overcast
11:54 PM 28.4 °F 19.7 °F 17.6 °F 64% 29.90 in 10.0 mi SW 9.2 mph - N/A   Overcast